FW1564 Weather Reports


time (UTC)temp
C
wind
direction
speed
KPH
gust
KPH
rain 1hr
cm
rain 24hr
cm
rain mn
cm
humidity
%
barometer
mb
20260901150304 24 186 6.4 14.5 0.00 0.00 0.00 79 1022.2
20260901144346 24 164 8.0 11.3 0.00 0.00 0.00 79 1022.1
20260901143346 23 122 4.8 11.3 0.00 0.00 0.00 79 1022.0
20260901142346 23 145 4.8 11.3 0.00 0.00 0.00 80 1022.2
20260901141346 23 276 0.0 16.1 0.00 0.00 0.00 81 1022.2
20260901140346 23 135 9.7 14.5 0.00 0.00 0.00 81 1022.4
20260901135346 23 209 3.2 11.3 0.00 0.00 0.00 79 1022.3
20260901134346 24 178 4.8 14.5 0.00 0.00 0.00 78 1022.3
20260901133345 24 167 4.8 11.3 0.00 0.00 0.00 78 1022.4
20260901132346 24 104 4.8 14.5 0.00 0.00 0.00 78 1022.5
20260901131343 23 163 6.4 11.3 0.00 0.00 0.00 79 1022.4
20260901130342 23 129 9.7 14.5 0.00 0.00 0.00 79 1022.5
20260901125343 25 90 6.4 12.9 0.00 0.00 0.00 76 1022.4
20260901124343 23 183 6.4 16.1 0.00 0.00 0.00 79 1022.7
20260901123336 25 167 6.4 14.5 0.00 0.00 0.00 78 1022.5
20260901122336 23 102 3.2 11.3 0.00 0.00 0.00 80 1022.5
20260901121337 23 135 8.0 14.5 0.00 0.00 0.00 80 1022.4
20260901120824 23 131 6.4 11.3 0.00 0.00 0.00 81 1022.7
20260901115822 25 155 3.2 14.5 0.00 0.00 0.00 78 1022.7
20260901114336 23 137 3.2 14.5 0.00 0.00 0.00 78 1022.8
20260901113336 23 141 3.2 11.3 0.00 0.00 0.00 79 1022.7
20260901112336 23 152 6.4 9.7 0.00 0.00 0.00 80 1022.8
20260901111336 24 161 4.8 12.9 0.00 0.00 0.00 77 1022.9
20260901110337 24 162 4.8 12.9 0.00 0.00 0.00 77 1022.7
20260901105337 24 199 4.8 12.9 0.00 0.00 0.00 77 1022.7
20260901105329 24 115 4.8 14.5 0.00 0.00 0.00 77 1022.5
20260901103336 24 163 1.6 11.3 0.00 0.00 0.00 75 1022.6
20260901102336 24 136 9.7 12.9 0.00 0.00 0.00 76 1022.5
20260901101336 23 121 1.6 11.3 0.00 0.00 0.00 76 1022.3
20260901100335 23 124 1.6 9.7 0.00 0.00 0.00 78 1022.2
20260901095320 23 169 6.4 11.3 0.00 0.00 0.00 77 1022.2
20260901094319 23 175 6.4 6.4 0.00 0.00 0.00 77 1022.2
20260901093319 23 115 3.2 6.4 0.00 0.00 0.00 76 1022.0
20260901092757 22 79 0.0 3.2 0.00 0.00 0.00 73 1022.0
20260901091320 22 4 1.6 3.2 0.00 0.00 0.00 72 1021.9
20260901090305 22 357 0.0 3.2 0.00 0.00 0.00 70 1022.0
20260901085738 22 140 1.6 3.2 0.00 0.00 0.00 69 1021.8
20260901084748 21 41 1.6 4.8 0.00 0.00 0.00 69 1022.0
20260901083748 21 16 0.0 6.4 0.00 0.00 0.00 64 1022.0
20260901082306 20 10 3.2 4.8 0.00 0.00 0.00 62 1021.9
20260901081306 20 7 3.2 9.7 0.00 0.00 0.00 64 1022.0
20260901080735 20 351 6.4 9.7 0.00 0.00 0.00 63 1022.0
20260901075307 20 10 4.8 6.4 0.00 0.00 0.00 64 1021.9
20260901074304 19 312 3.2 9.7 0.00 0.00 0.00 64 1022.0
20260901073305 19 340 4.8 6.4 0.00 0.00 0.00 63 1021.9
20260901072258 18 328 4.8 6.4 0.00 0.00 0.00 65 1021.7
20260901071258 18 344 1.6 4.8 0.00 0.00 0.00 64 1021.7
20260901070259 18 330 4.8 4.8 0.00 0.00 0.00 63 1021.7
20260901065258 18 340 3.2 9.7 0.00 0.00 0.00 62 1021.2
20260901064258 19 340 3.2 4.8 0.00 0.00 0.00 66 1021.1
20260901063259 18 334 1.6 4.8 0.00 0.00 0.00 67 1021.2
20260901062258 18 349 3.2 3.2 0.00 0.00 0.00 64 1021.1
20260901061259 18 334 1.6 6.4 0.00 0.00 0.00 63 1020.8
20260901060743 18 345 1.6 3.2 0.00 0.00 0.00 65 1020.7
20260901055256 18 338 3.2 4.8 0.00 0.00 0.00 66 1020.9
20260901053256 18 346 1.6 3.2 0.00 0.00 0.00 65 1020.5
20260901052255 18 316 1.6 3.2 0.00 0.00 0.00 64 1020.7
20260901051743 19 313 0.0 3.2 0.00 0.00 0.00 63 1020.8
20260901050308 19 332 0.0 4.8 0.00 0.00 0.00 62 1020.9
20260901045730 18 4 3.2 4.8 0.00 0.00 0.00 66 1020.8
20260901044251 18 351 3.2 4.8 0.00 0.00 0.00 63 1020.8
20260901043725 19 342 3.2 4.8 0.00 0.00 0.00 61 1020.7
20260901042250 19 339 1.6 6.4 0.00 0.00 0.00 62 1020.9
20260901041252 18 352 3.2 4.8 0.00 0.00 0.00 63 1021.2
20260901040249 19 342 3.2 4.8 0.00 0.00 0.00 62 1021.1
20260901035250 18 332 1.6 4.8 0.00 0.00 0.00 64 1021.0
20260901034251 19 342 1.6 9.7 0.00 0.00 0.00 62 1021.0
20260901033737 19 348 6.4 6.4 0.00 0.00 0.00 63 1021.2
20260901032249 18 339 1.6 4.8 0.00 0.00 0.00 65 1021.1
20260901031251 18 339 4.8 6.4 0.00 0.00 0.00 66 1021.1
20260901030249 19 342 1.6 4.8 0.00 0.00 0.00 68 1021.6
20260901025249 18 353 1.6 4.8 0.00 0.00 0.00 69 1021.6
20260901024251 18 9 1.6 4.8 0.00 0.00 0.00 70 1021.7
20260901023730 18 340 3.2 4.8 0.00 0.00 0.00 72 1021.5
20260901022249 19 332 3.2 4.8 0.00 0.00 0.00 69 1021.8
20260901021250 18 338 1.6 4.8 0.00 0.00 0.00 69 1021.9
20260901020249 18 7 4.8 6.4 0.00 0.00 0.00 67 1021.9
20260901015244 18 345 6.4 6.4 0.00 0.00 0.00 67 1022.0
20260901014746 19 343 3.2 4.8 0.00 0.00 0.00 67 1022.0
20260901013245 18 340 1.6 3.2 0.00 0.00 0.00 69 1021.9
20260901012257 19 332 3.2 6.4 0.00 0.00 0.00 66 1022.0
20260901011246 19 345 4.8 6.4 0.00 0.00 0.00 65 1022.2
20260901010245 19 338 3.2 4.8 0.00 0.00 0.00 69 1022.1
20260901005723 19 334 3.2 4.8 0.00 0.00 0.00 63 1022.3
20260901004242 19 359 4.8 6.4 0.00 0.00 0.00 63 1022.5
20260901003717 19 339 3.2 4.8 0.00 0.00 0.00 64 1022.7
20260901002243 19 342 1.6 4.8 0.00 0.00 0.00 64 1022.5
20260901001242 18 349 3.2 9.7 0.00 0.00 0.00 69 1022.5
20260901000242 19 350 3.2 6.4 0.00 0.00 0.00 70 1022.5
20260831235241 19 354 1.6 6.4 0.00 0.00 0.00 72 1022.6
20260831234242 19 332 4.8 6.4 0.00 0.00 0.00 70 1022.6
20260831233239 19 334 1.6 6.4 0.00 0.00 0.00 67 1022.5
20260831232239 19 333 3.2 6.4 0.00 0.00 0.00 69 1022.6
20260831231231 19 347 1.6 6.4 0.00 0.00 0.00 70 1022.7
20260831230239 19 337 1.6 11.3 0.00 0.00 0.00 69 1022.4
20260831225232 19 340 4.8 6.4 0.00 0.00 0.00 71 1022.4
20260831224233 19 341 3.2 6.4 0.00 0.00 0.00 75 1022.6
20260831223232 18 342 3.2 4.8 0.00 0.00 0.00 76 1022.5
20260831222232 19 339 4.8 9.7 0.00 0.00 0.00 77 1022.9
20260831221233 19 8 6.4 9.7 0.00 0.00 0.00 76 1022.8
20260831220232 19 336 3.2 4.8 0.00 0.00 0.00 79 1022.5
20260831215712 19 340 3.2 6.4 0.00 0.00 0.00 79 1022.6
20260831214705 19 345 3.2 6.4 0.00 0.00 0.00 79 1022.9
20260831213233 19 339 3.2 4.8 0.00 0.00 0.00 77 1022.7
20260831212232 19 353 3.2 4.8 0.00 0.00 0.00 78 1022.4
20260831211231 19 345 3.2 4.8 0.00 0.00 0.00 79 1022.2
20260831210709 19 340 3.2 4.8 0.00 0.00 0.00 81 1022.2
20260831205232 20 339 3.2 6.4 0.00 0.00 0.00 82 1022.0
20260831204233 20 333 6.4 6.4 0.00 0.00 0.00 82 1022.0
20260831204207 19 345 3.2 4.8 0.00 0.00 0.00 84 1021.9
20260831202225 19 336 3.2 4.8 0.00 0.00 0.00 84 1021.6
20260831201225 20 346 1.6 4.8 0.00 0.00 0.00 85 1021.8
20260831200225 20 341 3.2 4.8 0.00 0.00 0.00 86 1021.7
20260831195707 20 327 0.0 1.6 0.00 0.00 0.00 87 1021.6
20260831194225 20 327 0.0 1.6 0.00 0.00 0.00 87 1021.3
20260831193226 21 203 0.0 0.0 0.00 0.00 0.00 86 1021.1
20260831192226 21 240 0.0 3.2 0.00 0.00 0.00 86 1021.1
20260831191225 21 120 3.2 3.2 0.00 0.00 0.00 85 1020.9
20260831190225 21 200 1.6 4.8 0.00 0.00 0.00 85 1021.2
20260831185225 21 111 0.0 4.8 0.00 0.00 0.00 84 1021.2
20260831184226 21 94 3.2 9.7 0.00 0.00 0.00 84 1021.0
20260831183700 21 112 3.2 4.8 0.00 0.00 0.00 84 1021.0
20260831182222 21 134 4.8 9.7 0.00 0.00 0.00 83 1021.1
20260831181221 22 133 3.2 6.4 0.00 0.00 0.00 83 1021.1
20260831180220 22 146 3.2 6.4 0.00 0.00 0.00 82 1020.7
20260831175657 22 210 3.2 6.4 0.00 0.00 0.00 82 1020.8
20260831174220 22 160 1.6 4.8 0.00 0.00 0.00 81 1020.7
20260831173220 22 95 4.8 9.7 0.00 0.00 0.00 80 1020.7
20260831172219 22 135 4.8 9.7 0.00 0.00 0.00 79 1020.9
20260831171221 22 131 6.4 9.7 0.00 0.00 0.00 79 1020.8
20260831170221 23 136 6.4 9.7 0.00 0.00 0.00 78 1021.0
20260831165655 24 118 4.8 11.3 0.00 0.00 0.00 74 1020.9
20260831164221 23 209 0.0 11.3 0.00 0.00 0.00 74 1020.7
20260831163657 24 113 8.0 11.3 0.00 0.00 0.00 72 1020.8
20260831162222 24 131 6.4 14.5 0.00 0.00 0.00 73 1020.7
20260831161220 24 105 3.2 12.9 0.00 0.00 0.00 71 1020.9
20260831160221 24 145 9.7 16.1 0.00 0.00 0.00 73 1021.0
20260831155211 24 190 8.0 16.1 0.00 0.00 0.00 72 1020.8
20260831154211 24 146 4.8 14.5 0.00 0.00 0.00 72 1020.9
20260831153659 25 148 6.4 14.5 0.00 0.00 0.00 70 1021.0
20260831152211 25 131 6.4 16.1 0.00 0.00 0.00 69 1020.9
20260831151211 25 162 4.8 16.1 0.00 0.00 0.00 68 1021.2